Onweer trekt over Ninove

StormCell - Onweer anders bekeken

Welkom op Stormcell.be, dé website waar onweer al sinds 2011 anders wordt bekeken.

Op onze site vindt de bezoeker duidelijke weermodellen, data van het StormCell weerstation in regio Ninove (België) én kan men het onweer live volgen via lightningmaps.org.

We beschikken over een Facebook pagina waar weer gerelateerde berichten worden gedeeld en waar we zelf ook waarschuwingen voor onweer of noodweer uitsturen indien nodig.

U leest het goed: indien nodig, dus geen onheilspellende berichten als de storm of het onweer slechts in een glas water zal woeden. We zijn niet uit op sensatie of het zaaien van angst. We bekijken het onweer met klare kijk op de feiten. 

[Source: ADDS]
METAR
EBBR 210720Z 25006KT 9999 FEW014 18/14 Q1020 NOSIG =
EBBR 210510Z 2106/2212 25007KT 9999 FEW025 SCT045
TAF
EBBR 210510Z 2106/2212 25007KT 9999 FEW025 SCT045 =

Visweer Vlissingen

StormCell is een non profit organisatie zonder oogmerk tot sensatie